EWG6YP EDDB-LOWG

Flight info

Callsign EWG6YP
Flight time 1h 1m
Altitude 35000
Route LUROS3Q/06R LUROS Y211 BEBKU Z36 MAREM DCT APRAQ DCT ADLET DCT LIMRA DCT LEOBE LEOBE2M
Aircraft A319/M-SDE3FGHIRWY/LB1

Departure

Time 2026-05-08 21:00
Airport Berlin Brandenburg Airport (EDDB)

Arrival

Time 2026-05-08 22:01
Airport Graz Airport (LOWG)
Time Latitude Longitude Altitude Speed Heading
2026-05-08 20:37 52.36127 13.51295 158 ft 0 kts 339°
2026-05-08 20:49 52.36125 13.51296 155 ft 2 kts 339°
2026-05-08 20:50 52.36101 13.51311 155 ft 4 kts 339°
2026-05-08 20:50 52.36080 13.51324 155 ft 2 kts 339°
2026-05-08 20:50 52.36058 13.51343 155 ft 4 kts 310°
2026-05-08 20:50 52.36049 13.51378 155 ft 4 kts 254°
2026-05-08 20:51 52.36051 13.51386 155 ft 0 kts 249°
2026-05-08 20:53 52.36050 13.51384 155 ft 1 kts 249°
2026-05-08 20:53 52.36039 13.51335 155 ft 8 kts 249°
2026-05-08 20:53 52.36013 13.51226 155 ft 12 kts 249°
2026-05-08 20:53 52.35986 13.51113 155 ft 12 kts 249°
2026-05-08 20:54 52.35952 13.50973 155 ft 15 kts 249°
2026-05-08 20:54 52.35913 13.50806 154 ft 17 kts 249°
2026-05-08 20:54 52.35868 13.50647 154 ft 13 kts 225°
2026-05-08 20:54 52.35778 13.50628 154 ft 14 kts 208°
2026-05-08 20:55 52.35736 13.50472 154 ft 16 kts 249°
2026-05-08 20:55 52.35694 13.50288 154 ft 17 kts 248°
2026-05-08 20:55 52.35650 13.50106 154 ft 18 kts 249°
2026-05-08 20:55 52.35601 13.49899 154 ft 21 kts 249°
2026-05-08 20:56 52.35545 13.49664 154 ft 23 kts 249°
2026-05-08 20:56 52.35488 13.49422 154 ft 21 kts 249°
2026-05-08 20:56 52.35433 13.49188 154 ft 22 kts 249°
2026-05-08 20:56 52.35387 13.48994 154 ft 18 kts 249°
2026-05-08 20:57 52.35353 13.48857 154 ft 2 kts 247°
2026-05-08 20:57 52.35344 13.48821 154 ft 5 kts 250°
2026-05-08 20:57 52.35329 13.48756 154 ft 8 kts 249°
2026-05-08 20:57 52.35305 13.48652 154 ft 12 kts 249°
2026-05-08 20:58 52.35270 13.48509 154 ft 14 kts 244°
2026-05-08 20:58 52.35182 13.48503 154 ft 15 kts 158°
2026-05-08 20:58 52.35100 13.48610 154 ft 17 kts 106°
2026-05-08 20:58 52.35086 13.48776 154 ft 16 kts 99°
2026-05-08 20:59 52.35060 13.48958 154 ft 13 kts 122°
2026-05-08 20:59 52.35061 13.49028 154 ft 0 kts 68°
2026-05-08 20:59 52.35083 13.49121 154 ft 34 kts 69°
2026-05-08 20:59 52.35252 13.49832 155 ft 99 kts 69°
2026-05-08 21:00 52.35572 13.51180 205 ft 149 kts 69°
2026-05-08 21:00 52.35928 13.52745 842 ft 147 kts 76°
2026-05-08 21:00 52.35658 13.54356 1372 ft 157 kts 130°
2026-05-08 21:00 52.34792 13.55575 1802 ft 174 kts 141°
2026-05-08 21:01 52.33778 13.56846 2218 ft 193 kts 141°
2026-05-08 21:01 52.32681 13.58278 2748 ft 205 kts 139°
2026-05-08 21:01 52.31620 13.59814 3547 ft 205 kts 132°
2026-05-08 21:01 52.30965 13.61862 4231 ft 207 kts 100°
2026-05-08 21:02 52.31087 13.64298 4649 ft 229 kts 71°
2026-05-08 21:02 52.31576 13.66786 5496 ft 236 kts 76°
2026-05-08 21:02 52.31536 13.69579 5947 ft 261 kts 108°
2026-05-08 21:02 52.30514 13.72072 6661 ft 273 kts 142°
2026-05-08 21:03 52.28767 13.73248 7470 ft 277 kts 175°
2026-05-08 21:03 52.26830 13.73248 8375 ft 280 kts 183°
2026-05-08 21:03 52.24892 13.73111 9262 ft 285 kts 184°
2026-05-08 21:03 52.22900 13.72941 10114 ft 289 kts 184°
2026-05-08 21:04 52.20840 13.72765 10612 ft 306 kts 184°
2026-05-08 21:04 52.18638 13.72588 10928 ft 326 kts 183°
2026-05-08 21:04 52.16335 13.72417 11553 ft 334 kts 183°
2026-05-08 21:04 52.13999 13.72256 12273 ft 338 kts 184°
2026-05-08 21:05 52.11637 13.72098 13005 ft 342 kts 184°
2026-05-08 21:05 52.09245 13.71935 13730 ft 346 kts 184°
2026-05-08 21:05 52.06831 13.71773 14400 ft 349 kts 184°
2026-05-08 21:05 52.04393 13.71607 15034 ft 353 kts 184°
2026-05-08 21:06 52.01927 13.71438 15673 ft 356 kts 185°
2026-05-08 21:06 51.99442 13.71271 16324 ft 359 kts 185°
2026-05-08 21:06 51.96931 13.71102 16982 ft 363 kts 185°
2026-05-08 21:06 51.94399 13.70932 17637 ft 366 kts 185°
2026-05-08 21:07 51.91842 13.70758 18308 ft 370 kts 185°
2026-05-08 21:07 51.89258 13.70583 18908 ft 373 kts 185°
2026-05-08 21:07 51.86655 13.70410 19494 ft 376 kts 185°
2026-05-08 21:07 51.84034 13.70239 20085 ft 379 kts 185°
2026-05-08 21:08 51.81383 13.70068 20688 ft 382 kts 185°
2026-05-08 21:08 51.78716 13.69893 21279 ft 385 kts 185°
2026-05-08 21:08 51.76031 13.69710 21857 ft 388 kts 185°
2026-05-08 21:08 51.73360 13.69528 22420 ft 391 kts 185°
2026-05-08 21:09 51.70598 13.69341 22986 ft 394 kts 185°
2026-05-08 21:09 51.67846 13.69158 23542 ft 397 kts 185°
2026-05-08 21:09 51.65110 13.68979 24028 ft 400 kts 185°
2026-05-08 21:09 51.62316 13.68795 24488 ft 403 kts 185°
2026-05-08 21:10 51.59507 13.68610 24947 ft 405 kts 185°
2026-05-08 21:10 51.56683 13.68425 25396 ft 408 kts 185°
2026-05-08 21:10 51.53838 13.68236 25845 ft 410 kts 185°
2026-05-08 21:10 51.50973 13.68044 26293 ft 413 kts 185°
2026-05-08 21:11 51.48097 13.67854 26723 ft 415 kts 185°
2026-05-08 21:11 51.45208 13.67664 27175 ft 417 kts 185°
2026-05-08 21:11 51.42302 13.67470 27619 ft 419 kts 185°
2026-05-08 21:11 51.39376 13.67276 28058 ft 422 kts 185°
2026-05-08 21:12 51.36437 13.67084 28493 ft 424 kts 185°
2026-05-08 21:12 51.33482 13.66891 28925 ft 426 kts 185°
2026-05-08 21:12 51.30507 13.66696 29352 ft 429 kts 185°
2026-05-08 21:12 51.27516 13.66503 29772 ft 431 kts 185°
2026-05-08 21:13 51.24513 13.66307 30162 ft 434 kts 185°
2026-05-08 21:13 51.21487 13.66104 30528 ft 436 kts 185°
2026-05-08 21:13 51.18456 13.65903 30867 ft 437 kts 185°
2026-05-08 21:13 51.15402 13.65701 31187 ft 440 kts 185°
2026-05-08 21:14 51.12341 13.65503 31496 ft 442 kts 185°
2026-05-08 21:14 51.09265 13.65305 31816 ft 444 kts 185°
2026-05-08 21:14 51.06169 13.65106 32175 ft 444 kts 185°
2026-05-08 21:14 51.03084 13.64908 32609 ft 443 kts 185°
2026-05-08 21:15 51.00010 13.64710 33034 ft 442 kts 185°
2026-05-08 21:15 50.96936 13.64512 33474 ft 442 kts 184°
2026-05-08 21:15 50.93867 13.64314 33915 ft 441 kts 184°
2026-05-08 21:15 50.90804 13.64114 34320 ft 440 kts 184°
2026-05-08 21:16 50.87748 13.63918 34668 ft 440 kts 184°
2026-05-08 21:16 50.84684 13.63723 35000 ft 440 kts 184°
2026-05-08 21:16 50.81620 13.63530 35153 ft 440 kts 185°
2026-05-08 21:17 50.75571 13.63143 35177 ft 434 kts 184°
2026-05-08 21:17 50.69548 13.63949 35182 ft 436 kts 171°
2026-05-08 21:18 50.63636 13.66183 35182 ft 437 kts 167°
2026-05-08 21:18 50.57721 13.68412 35179 ft 437 kts 170°
2026-05-08 21:19 50.51761 13.70246 35167 ft 436 kts 172°
2026-05-08 21:19 50.45794 13.71930 35168 ft 436 kts 172°
2026-05-08 21:20 50.39838 13.73648 35169 ft 436 kts 171°
2026-05-08 21:20 50.33881 13.75413 35168 ft 436 kts 171°
2026-05-08 21:21 50.27922 13.77188 35167 ft 436 kts 171°
2026-05-08 21:21 50.21964 13.78961 35163 ft 436 kts 171°
2026-05-08 21:22 50.16001 13.80717 35163 ft 436 kts 171°
2026-05-08 21:22 50.10040 13.82459 35165 ft 436 kts 171°
2026-05-08 21:23 50.04079 13.84201 35151 ft 436 kts 172°
2026-05-08 21:23 49.98129 13.85944 35157 ft 435 kts 172°
2026-05-08 21:24 49.92176 13.87675 35162 ft 435 kts 172°
2026-05-08 21:24 49.86228 13.89404 35162 ft 435 kts 172°
2026-05-08 21:25 49.80276 13.91136 35153 ft 435 kts 172°
2026-05-08 21:25 49.74332 13.92854 35154 ft 435 kts 172°
2026-05-08 21:26 49.68385 13.94564 35157 ft 435 kts 172°
2026-05-08 21:26 49.62478 13.96255 35157 ft 435 kts 172°
2026-05-08 21:27 49.56529 13.97964 35142 ft 435 kts 172°
2026-05-08 21:27 49.50588 13.99668 35150 ft 434 kts 173°
2026-05-08 21:28 49.44650 14.01363 35156 ft 433 kts 173°
2026-05-08 21:28 49.38733 14.03049 35163 ft 432 kts 173°
2026-05-08 21:29 49.32822 14.04731 35150 ft 431 kts 173°
2026-05-08 21:29 49.26925 14.06394 35157 ft 430 kts 173°
2026-05-08 21:30 49.21038 14.08054 35159 ft 430 kts 173°
2026-05-08 21:30 49.15155 14.09714 35154 ft 430 kts 173°
2026-05-08 21:31 49.09280 14.11376 35140 ft 429 kts 173°
2026-05-08 21:31 49.04397 14.12751 35145 ft 429 kts 173°
2026-05-08 21:32 48.98491 14.14402 35148 ft 429 kts 173°
2026-05-08 21:32 48.92665 14.16029 35148 ft 428 kts 173°
2026-05-08 21:33 48.86808 14.17672 35135 ft 427 kts 174°
2026-05-08 21:33 48.80978 14.19293 35149 ft 425 kts 174°
2026-05-08 21:34 48.75161 14.20903 35147 ft 425 kts 174°
2026-05-08 21:34 48.69351 14.22513 35137 ft 424 kts 174°
2026-05-08 21:35 48.63548 14.24113 35115 ft 424 kts 174°
2026-05-08 21:35 48.57754 14.25709 35108 ft 424 kts 174°
2026-05-08 21:36 48.51942 14.27333 35101 ft 425 kts 173°
2026-05-08 21:36 48.46138 14.29022 35107 ft 425 kts 173°
2026-05-08 21:37 48.40340 14.30715 35088 ft 425 kts 173°
2026-05-08 21:37 48.37423 14.31560 34870 ft 425 kts 173°
2026-05-08 21:37 48.34519 14.32398 34610 ft 425 kts 173°
2026-05-08 21:37 48.31626 14.33228 34378 ft 422 kts 173°
2026-05-08 21:38 48.28744 14.34051 34148 ft 420 kts 173°
2026-05-08 21:38 48.25881 14.34872 33877 ft 418 kts 173°
2026-05-08 21:38 48.23035 14.35690 33596 ft 416 kts 173°
2026-05-08 21:38 48.20201 14.36505 33306 ft 413 kts 173°
2026-05-08 21:39 48.17386 14.37310 33044 ft 410 kts 173°
2026-05-08 21:39 48.14604 14.38106 32630 ft 405 kts 173°
2026-05-08 21:39 48.11842 14.38896 32165 ft 402 kts 173°
2026-05-08 21:39 48.09106 14.39676 31715 ft 399 kts 173°
2026-05-08 21:40 48.06394 14.40448 31262 ft 396 kts 173°
2026-05-08 21:40 48.03695 14.41212 30816 ft 393 kts 173°
2026-05-08 21:40 48.01056 14.41958 30373 ft 390 kts 173°
2026-05-08 21:41 47.95763 14.43454 29469 ft 383 kts 173°
2026-05-08 21:41 47.93163 14.44269 29044 ft 382 kts 167°
2026-05-08 21:41 47.90642 14.45683 28620 ft 383 kts 157°
2026-05-08 21:41 47.88349 14.47718 28194 ft 385 kts 148°
2026-05-08 21:42 47.86215 14.50023 27798 ft 383 kts 147°
2026-05-08 21:42 47.84030 14.52366 27388 ft 380 kts 147°
2026-05-08 21:42 47.81914 14.54628 27010 ft 378 kts 147°
2026-05-08 21:42 47.79755 14.56932 26606 ft 375 kts 147°
2026-05-08 21:43 47.77669 14.59151 26226 ft 373 kts 147°
2026-05-08 21:43 47.75569 14.61382 25840 ft 370 kts 147°
2026-05-08 21:43 47.73485 14.63593 25456 ft 366 kts 147°
2026-05-08 21:43 47.71416 14.65787 25060 ft 364 kts 147°
2026-05-08 21:44 47.69361 14.67965 24574 ft 364 kts 147°
2026-05-08 21:44 47.67296 14.70152 24065 ft 365 kts 146°
2026-05-08 21:44 47.65231 14.72339 23625 ft 363 kts 146°
2026-05-08 21:44 47.63183 14.74508 23129 ft 361 kts 146°
2026-05-08 21:45 47.61144 14.76663 22638 ft 359 kts 146°
2026-05-08 21:45 47.59118 14.78802 22166 ft 357 kts 146°
2026-05-08 21:45 47.57103 14.80929 21680 ft 355 kts 146°
2026-05-08 21:45 47.55096 14.83044 21187 ft 353 kts 146°
2026-05-08 21:46 47.53095 14.85148 20720 ft 352 kts 146°
2026-05-08 21:46 47.51106 14.87239 20271 ft 350 kts 146°
2026-05-08 21:46 47.49131 14.89317 19828 ft 348 kts 146°
2026-05-08 21:46 47.47161 14.91391 19384 ft 346 kts 146°
2026-05-08 21:47 47.45703 14.92926 19068 ft 345 kts 146°
2026-05-08 21:47 47.43752 14.94974 18657 ft 343 kts 146°
2026-05-08 21:47 47.41814 14.97004 18212 ft 341 kts 146°
2026-05-08 21:47 47.39886 14.99019 17742 ft 339 kts 146°
2026-05-08 21:48 47.37972 15.01018 17285 ft 337 kts 146°
2026-05-08 21:48 47.36068 15.03008 16837 ft 334 kts 146°
2026-05-08 21:48 47.34173 15.04987 16402 ft 332 kts 146°
2026-05-08 21:48 47.32315 15.06926 15978 ft 331 kts 146°
2026-05-08 21:49 47.30420 15.08903 15537 ft 329 kts 146°
2026-05-08 21:49 47.28583 15.10817 15128 ft 327 kts 146°
2026-05-08 21:49 47.26729 15.12745 14737 ft 325 kts 146°
2026-05-08 21:49 47.24885 15.14661 14323 ft 323 kts 146°
2026-05-08 21:50 47.23052 15.16564 13917 ft 322 kts 146°
2026-05-08 21:50 47.21228 15.18455 13483 ft 320 kts 146°
2026-05-08 21:50 47.19402 15.20346 13060 ft 318 kts 146°
2026-05-08 21:50 47.17600 15.22209 12647 ft 315 kts 146°
2026-05-08 21:51 47.15813 15.24057 12248 ft 313 kts 146°
2026-05-08 21:51 47.14035 15.25896 11845 ft 312 kts 146°
2026-05-08 21:51 47.12179 15.27500 11429 ft 308 kts 157°
2026-05-08 21:51 47.10157 15.28464 10916 ft 304 kts 169°
2026-05-08 21:52 47.08090 15.29026 10540 ft 297 kts 170°
2026-05-08 21:52 47.06107 15.29567 10408 ft 283 kts 170°
2026-05-08 21:52 47.04217 15.30085 10269 ft 270 kts 170°
2026-05-08 21:52 47.02413 15.30585 10061 ft 259 kts 170°
2026-05-08 21:53 47.00659 15.31072 9645 ft 254 kts 170°
2026-05-08 21:53 46.98931 15.31550 9192 ft 252 kts 170°
2026-05-08 21:53 46.97213 15.32025 8743 ft 250 kts 169°
2026-05-08 21:53 46.95535 15.32487 8285 ft 248 kts 169°
2026-05-08 21:54 46.93841 15.32951 7817 ft 247 kts 169°
2026-05-08 21:54 46.92160 15.33413 7366 ft 245 kts 169°
2026-05-08 21:54 46.90491 15.33882 6921 ft 243 kts 168°
2026-05-08 21:54 46.88844 15.34412 6480 ft 241 kts 166°
2026-05-08 21:55 46.87214 15.34971 6025 ft 240 kts 166°
2026-05-08 21:55 46.85598 15.35531 5652 ft 238 kts 166°
2026-05-08 21:55 46.83992 15.36082 5275 ft 236 kts 166°
2026-05-08 21:56 46.80987 15.37362 4799 ft 214 kts 146°
2026-05-08 21:56 46.79962 15.38878 4463 ft 206 kts 120°
2026-05-08 21:56 46.79511 15.40795 4108 ft 198 kts 97°
2026-05-08 21:56 46.79653 15.42714 4011 ft 187 kts 73°
2026-05-08 21:57 46.80236 15.44383 4012 ft 184 kts 60°
2026-05-08 21:57 46.80901 15.45970 4005 ft 183 kts 56°
2026-05-08 21:57 46.81799 15.47236 4009 ft 183 kts 34°
2026-05-08 21:57 46.82968 15.47974 3949 ft 185 kts 13°
2026-05-08 21:58 46.84251 15.48039 3775 ft 188 kts 351°
2026-05-08 21:58 46.85542 15.47688 3546 ft 188 kts 349°
2026-05-08 21:58 46.86810 15.47344 3310 ft 183 kts 349°
2026-05-08 21:58 46.87822 15.47070 3142 ft 184 kts 349°
2026-05-08 21:59 46.89048 15.46730 2888 ft 174 kts 349°
2026-05-08 21:59 46.90207 15.46412 2651 ft 165 kts 349°
2026-05-08 21:59 46.91317 15.46107 2422 ft 159 kts 349°
2026-05-08 21:59 46.92389 15.45814 2207 ft 155 kts 349°
2026-05-08 22:00 46.93441 15.45522 2017 ft 153 kts 349°
2026-05-08 22:00 46.94481 15.45239 1800 ft 151 kts 349°
2026-05-08 22:00 46.95509 15.44956 1594 ft 149 kts 349°
2026-05-08 22:00 46.96512 15.44681 1396 ft 146 kts 349°
2026-05-08 22:01 46.97502 15.44408 1195 ft 144 kts 349°
2026-05-08 22:01 46.98440 15.44159 1098 ft 125 kts 349°
2026-05-08 22:01 46.99164 15.43948 1104 ft 82 kts 349°
2026-05-08 22:01 46.99565 15.43844 1112 ft 36 kts 356°
2026-05-08 22:02 46.99787 15.43887 1115 ft 17 kts 14°
2026-05-08 22:02 46.99876 15.43924 1114 ft 9 kts 19°
2026-05-08 22:02 46.99925 15.43994 1114 ft 11 kts 65°
2026-05-08 22:02 46.99933 15.44047 1117 ft 0 kts 79°
2026-05-08 22:03 46.99934 15.44060 1117 ft 3 kts 79°
2026-05-08 22:04 46.99934 15.44110 1111 ft 8 kts 105°
2026-05-08 22:04 46.99876 15.44154 1117 ft 12 kts 169°
2026-05-08 22:04 46.99811 15.44171 1114 ft 10 kts 169°
2026-05-08 22:04 46.99729 15.44194 1115 ft 11 kts 170°
2026-05-08 22:05 46.99694 15.44204 1113 ft 7 kts 169°
2026-05-08 22:05 46.99659 15.44213 1114 ft 3 kts 169°
2026-05-08 22:05 46.99633 15.44235 1109 ft 7 kts 128°
2026-05-08 22:05 46.99607 15.44286 1113 ft 4 kts 127°
2026-05-08 22:06 46.99590 15.44319 1108 ft 3 kts 127°
2026-05-08 22:06 46.99587 15.44325 1111 ft 0 kts 127°